STARLINK-3284 (50178 NORAD) Tracking and Keplerian Element Data

This shows tracking and keplerian element data for the satellite.

Feedback or suggestion? Click here.




ElementValue
Catalog50178
NameSTARLINK-3284
Epoch Orbit2645
Epoch Day140.91667824
Epoch Year2022
RAAN3.5644
Inclination53.2159
Eccentricity0.000211
Argument of Perigee45.3377
Mean Anonmoly212.7438
Mean Motion15.08817776
Decay Rate0.00018103
L11 50178U 21125Y 22140.91667824 .00018103 00000+0 11533-2 0 9991
L22 50178 53.2159 3.5644 0002110 45.3377 212.7438 15.08817776 26457

Live tracking and technical data element details for STARLINK-3284 (NORAD 50178). STARLINK-3284 can be tracked NOW for your location showing map with azimuth and elevation plus other details from your city location.

Track the satellite on the map from your city or location and see movement details for azimuth, elevation, latitude, longitude, range, height, and movement on the map or in text.







IsCatalogInMostPopularTable: catalog: 50178, numindb: 22
Update: records affected: 1



GetName: 50178 STARLINK-3284

Hit Count: updated at: Mon, 23 May 2022 20:33:32 GMT